Weather History for PATK - March, 2014

Change the Weather History Date:

Monday, March 10, 2014

  Actual Average Record
Temperature  
Mean Temperature 20 °F -  
Max Temperature 37 °F 33 °F 48 °F (1988)
Min Temperature 3 °F 9 °F -32 °F (1972)
Degree Days  
Heating Degree Days 45    
Moisture  
Dew Point 9 °F    
Average Humidity 47    
Maximum Humidity 71    
Minimum Humidity 31    
Precipitation  
Precipitation 0.00 in - - ()
Sea Level Pressure  
Sea Level Pressure 29.32 in    
Wind  
Wind Speed 8 mph (NNE)    
Max Wind Speed 14 mph    
Max Gust Speed 23 mph    
Visibility 10 miles    
Events Snow    
Averages and records for this station are not official NWS values.
T = Trace of Precipitation, MM = Missing Value Source: NWS Daily Summary

Daily Weather History Graph

Daily Weather History Graph

Search for Another Location

Airport or City:

Trip Planner

Search our weather history database for the weather conditions in past years. The results will help you decide how hot, cold, wet, or windy it might be!

Date:

Astronomy

Mar. 10, 2014 Rise Set
Actual Time 8:33 AM AKDT 7:48 PM AKDT
Civil Twilight 7:49 AM AKDT 8:33 PM AKDT
Nautical Twilight 6:56 AM AKDT 9:26 PM AKDT
Astronomical Twilight 6:01 AM AKDT 10:21 PM AKDT
Moon 1:25 PM AKDT (3/10) 6:09 AM AKDT (3/10)
Length of Visible Light 12h 44m
Length of Day
11h 15m
Waxing Gibbous, 71% of the Moon is Illuminated
Mar 10
Waxing Gibbous
Mar 16
Full
Mar 23
Last Quarter
Mar 30
New
Apr 7
First Quarter

Hourly Weather History & Observations

Time (AKDT) Temp. Windchill Dew Point Humidity Pressure Visibility Wind Dir Wind Speed Gust Speed Precip Events Conditions
12:53 AM 16.0 °F 8.8 °F -2.0 °F 45% 29.51 in 10.0 mi NNE 4.6 mph - N/A   Overcast
1:53 AM 17.1 °F 5.0 °F -2.0 °F 43% 29.51 in 10.0 mi NNE 10.4 mph - N/A   Overcast
2:53 AM 16.0 °F 3.6 °F -0.9 °F 47% 29.51 in 10.0 mi NNE 10.4 mph - N/A   Overcast
3:53 AM 17.1 °F 6.6 °F -0.0 °F 47% 29.52 in 8.0 mi North 8.1 mph - 0.00 in Snow Light Snow
4:53 AM 16.0 °F 6.3 °F 3.9 °F 59% 29.53 in 9.0 mi North 6.9 mph - 0.00 in   Overcast
5:53 AM 16.0 °F 7.4 °F 8.1 °F 71% 29.52 in 10.0 mi North 5.8 mph - N/A   Overcast
6:53 AM 17.1 °F 7.6 °F 8.1 °F 68% 29.51 in 10.0 mi North 6.9 mph - N/A   Overcast
7:53 AM 18.0 °F 9.8 °F 8.1 °F 65% 29.49 in 10.0 mi Variable 5.8 mph - N/A   Overcast
8:53 AM 19.9 °F 7.3 °F 3.0 °F 48% 29.48 in 10.0 mi NNE 12.7 mph 18.4 mph N/A   Overcast
9:53 AM 21.0 °F 9.9 °F 3.0 °F 46% 29.46 in 10.0 mi NNE 10.4 mph 18.4 mph N/A   Overcast
10:53 AM 23.0 °F 13.1 °F 3.9 °F 44% 29.43 in 10.0 mi NNE 9.2 mph - N/A   Overcast
11:53 AM 24.1 °F 12.0 °F 5.0 °F 44% 29.41 in 10.0 mi NNE 13.8 mph 23.0 mph N/A   Overcast
12:53 PM 26.1 °F 15.0 °F 6.1 °F 43% 29.38 in 10.0 mi NNE 12.7 mph 18.4 mph N/A   Overcast
1:53 PM 27.0 °F 16.1 °F 8.1 °F 45% 29.34 in 10.0 mi NE 12.7 mph - N/A   Overcast
2:53 PM 28.0 °F 17.0 °F 10.0 °F 47% 29.30 in 10.0 mi NNE 13.8 mph - N/A   Overcast
3:53 PM 30.0 °F 19.5 °F 12.0 °F 47% 29.26 in 10.0 mi NNE 13.8 mph 21.9 mph N/A   Mostly Cloudy
4:53 PM 32.0 °F 23.0 °F 12.9 °F 45% 29.21 in 10.0 mi NNE 11.5 mph 16.1 mph N/A   Mostly Cloudy
5:53 PM 33.1 °F 24.4 °F 15.1 °F 48% 29.16 in 10.0 mi NNE 11.5 mph - N/A   Mostly Cloudy
6:53 PM 34.0 °F 29.8 °F 16.0 °F 48% 29.11 in 10.0 mi North 4.6 mph - N/A   Overcast
7:53 PM 35.1 °F 31.0 °F 16.0 °F 46% 29.06 in 10.0 mi North 4.6 mph - N/A   Overcast
8:53 PM 35.1 °F 29.3 °F 18.0 °F 50% 29.02 in 10.0 mi NNW 6.9 mph - N/A   Overcast
9:53 PM 37.0 °F 32.4 °F 18.0 °F 46% 29.00 in 10.0 mi North 5.8 mph - N/A   Overcast
10:53 PM 37.0 °F 32.4 °F 18.0 °F 46% 29.00 in 10.0 mi North 5.8 mph - N/A   Overcast
11:53 PM 36.0 °F 33.3 °F 19.9 °F 52% 29.05 in 10.0 mi WNW 3.5 mph - N/A   Overcast